Location: 22
(39.7117°N, 89.5929°W)
Time: 02:51:27
(UTC-06:00)

Tiangong - Pass Details

Date: 27 September 2023
Orbit: 373 x 384 km, 41.5° (Epoch: 30 November)

Event Time Altitude Azimuth Distance (km) Brightness Sun altitude
Rises 20:21:21 0° 228° (SW) 2,294 2.3 -18.7°
Reaches altitude 10° 20:23:34 10° 218° (SW) 1,430 1.0 -19.2°
Enters shadow 20:25:21 24° 193° (SSW) 857 -0.4 -19.5°
